Location: Mexico
(19.4000°N, 99.1500°W)
Time: 11:23:41
(UTC-06:00)

ISS - Pass Details

Date: 14 January 2020
Orbit: 415 x 422 km, 51.6° (Epoch: 23 January)

Event Time Altitude Azimuth Distance (km) Brightness Sun altitude
Exits shadow 05:39:58 27° 29° (NNE) 826 -2.2 -21.6°
Maximum altitude 05:40:31 29° 48° (NE) 792 -2.1 -21.5°
Drops below altitude 10° 05:43:27 10° 111° (ESE) 1,478 0.2 -20.8°
Sets 05:45:42 0° 123° (ESE) 2,339 1.4 -20.3°
